Location: Assche-ter-Heiden
(50.9174°N, 4.1574°E)
Time: 21:28:35
(UTC+00:00)

Cosmos 783 Rocket - Pass Details

Date: 20 January 2020
Orbit: 758 x 780 km, 74.1° (Epoch: 18 February)

Event Time Altitude Azimuth Distance (km) Brightness Sun altitude
Exits shadow 04:41:06 85° 140° (SE) 773 4.4 -27.0°
Maximum altitude 04:41:10 85° 113° (ESE) 772 4.4 -27.0°
Drops below altitude 10° 04:46:24 10° 25° (NNE) 2,303 7.2 -26.2°
Sets 04:48:47 0° 25° (NNE) 3,231 8.1 -25.8°
